Tracking 30415 objects as of 16-May-2025
HD Live streaming from Space Station
objects crossing your sky now

NSS 513 (INTELSAT 513)

Track NSS 513 (INTELSAT 513) now!
NSS 513 (INTELSAT 513) is classified as:


NORAD ID: 19121
Int'l Code: 1988-040A
Perigee: 36,217.3 km
Apogee: 36,336.6 km
Inclination: 14.8 °
Period: 1,460.9 minutes
Semi major axis: 42647 km
RCS: 9.2727 m2 (large)
Launch date: May 17, 1988
Source: Netherlands (NETH)
Launch site: FRENCH GUIANA (FRGUI)
Your satellite tracking list
Your tracking list is empty




NASA's NSSDC Master Catalog

Two Line Element Set (TLE):
1 19121U 88040A   25135.07767934 -.00000041  00000-0  00000-0 0  9999
2 19121  14.8266 351.7103 0013983 103.0842 204.2344  0.98572591110619
Source of the keplerian elements: AFSPC